{"data":{"norad_id":63451,"intl_designator":"2025-069U","name":"STARLINK-33740","alt_names":[],"object_type":"PAYLOAD","status":"ACTIVE","operator":null,"country":"US","launch_date":"2025-04-04","launch_site_code":"AFWTR","launch_vehicle":null,"mission":null,"orbit_class":"UNKNOWN","rcs_meters":null,"size_class":null,"mass_kg":null,"dimensions":null,"purposes":["comms"],"wikipedia_slug":null,"has_3d_model":false,"image_url":null,"decayed_at":null,"tle_current":{"epoch":"2026-05-24T21:00:25.776576Z","epoch_age_seconds":95893,"freshness":"FRESH","line1":"1 63451U 25069U   26144.87529834  .00035963  00000+0  83124-3 0  9990","line2":"2 63451  53.1583 146.1403 0001401  83.2021 276.9144 15.42186627 64990","mean_motion":15.42186627,"eccentricity":0.0001401,"inclination_deg":53.1583,"raan_deg":146.1403,"arg_perigee_deg":83.2021,"mean_anomaly_deg":276.9144,"bstar":0.00083124,"rev_number":6499,"period_min":93.373913039385,"perigee_km":438.70200340963,"apogee_km":440.61234933785,"semimajor_km":6817.7941763737,"source":"CELESTRAK","updated_at":"2026-05-25T13:38:20.001790Z"}}}